Location: Unspecified
(34.1440°N, 0.0000°E)
Time: 04:46:20
(UTC+00:00)

SL-16 Debris - Visible Passes

Search period start: 04 April 2026 00:00
Search period end: 14 April 2026 00:00
Orbit: 839 x 1123 km, 71.1° (Epoch: 29 March)

Date Brightness Start Highest point End Pass type
(mag) Time Alt. Az. Time Alt. Az. Time Alt. Az.
4 Apr ? 00:35:47 11° N 00:35:47 11° N 00:36:02 10° N visible
5 Apr ? 23:43:34 12° N 23:43:34 12° N 23:44:05 10° N visible
7 Apr ? 00:09:47 12° NNW 00:09:47 12° NNW 00:10:27 10° N visible
7 Apr ? 22:51:11 13° NNE 22:51:11 13° NNE 22:51:47 10° NNE visible
8 Apr ? 23:17:16 16° N 23:17:16 16° N 23:18:38 10° N visible
9 Apr ? 21:58:33 13° NNE 21:58:33 13° NNE 21:59:12 10° NNE visible
9 Apr ? 23:43:15 14° NNW 23:43:15 14° NNW 23:44:47 10° NNW visible
10 Apr ? 22:24:26 21° N 22:24:26 21° N 22:26:26 10° NNE visible
11 Apr ? 21:05:30 13° NE 21:05:30 13° NE 21:06:15 10° NE visible
11 Apr ? 22:50:12 22° NNW 22:50:12 22° NNW 22:53:09 10° N visible
12 Apr ? 21:31:06 28° NNE 21:31:06 28° NNE 21:33:56 10° NNE visible
12 Apr ? 23:15:47 15° NW 23:15:47 15° NW 23:19:00 10° NNW visible
13 Apr ? 20:11:47 13° ENE 20:11:47 13° ENE 20:12:45 10° NE visible
13 Apr ? 21:56:26 40° NNW 21:56:26 40° NNW 22:01:03 10° N visible
